This is the latest recevied weather packets stored in our database for station/object N4NVD-13. If no packets are shown the sender has not sent any weather packets the latest 10 day(s).
| Time | Temp. | Humidity | Pressure | Rain* | Wind** | Luminosity | Snow |
|---|---|---|---|---|---|---|---|
| 1777924935 | 26.67° C | 69% | 1011.1 hPa | 0 mm | - | 499 W/m² | - |
| 1777924631 | 26.67° C | 71% | 1011.2 hPa | 0 mm | - | 785 W/m² | - |
| 1777924327 | 26.67° C | 71% | 1011.2 hPa | 0 mm | - | 630 W/m² | - |
| 1777924024 | 26.67° C | 70% | 1011.4 hPa | 0 mm | - | 219 W/m² | - |
| 1777923721 | 26.67° C | 69% | 1011.4 hPa | 0 mm | - | 363 W/m² | - |
| 1777923417 | 26.67° C | 69% | 1011.7 hPa | 0 mm | - | 358 W/m² | - |
| 1777923115 | 26.67° C | 71% | 1011.8 hPa | 0 mm | - | 576 W/m² | - |
| 1777922813 | 26.67° C | 70% | 1011.9 hPa | 0 mm | - | 379 W/m² | - |
| 1777922510 | 26.11° C | 72% | 1011.9 hPa | 0 mm | - | 362 W/m² | - |
| 1777922209 | 25.56° C | 72% | 1011.8 hPa | 0 mm | - | 491 W/m² | - |
| 1777921904 | 26.11° C | 72% | 1011.9 hPa | 0 mm | - | 389 W/m² | - |
| 1777921600 | 26.67° C | 71% | 1012.1 hPa | 0 mm | - | 745 W/m² | - |
| 1777921297 | 26.11° C | 71% | 1012.1 hPa | 0 mm | - | 803 W/m² | - |
| 1777920993 | 25.56° C | 72% | 1012.1 hPa | 0 mm | - | 423 W/m² | - |
| 1777920690 | 25.56° C | 71% | 1012.4 hPa | 0 mm | - | 845 W/m² | - |
| 1777920386 | 25.56° C | 70% | 1012.1 hPa | 0 mm | - | 347 W/m² | - |
| 1777920081 | 25.56° C | 74% | 1012.5 hPa | 0 mm | - | 820 W/m² | - |
| 1777919779 | 25.56° C | 73% | 1012.3 hPa | 0 mm | - | 350 W/m² | - |
| 1777919476 | 25° C | 73% | 1012.7 hPa | 0 mm | - | 454 W/m² | - |
| 1777919174 | 25° C | 73% | 1012.3 hPa | 0 mm | - | 308 W/m² | - |
| 1777918871 | 25° C | 71% | 1013 hPa | 0 mm | - | 367 W/m² | - |
| 1777918568 | 25.56° C | 71% | 1012.7 hPa | 0 mm | - | 347 W/m² | - |
| 1777918266 | 25° C | 73% | 1013 hPa | 0 mm | - | 424 W/m² | - |
| 1777917965 | 25° C | 71% | 1013.1 hPa | 0 mm | - | 328 W/m² | - |
| 1777917664 | 25° C | 71% | 1013 hPa | 0 mm | - | 379 W/m² | - |
* Rain latest hour (hover to see other rain measurements)
** Current wind speed in m/s (hover to see current wind gust speed)